COSMOS 2466 (738)

Last updated on May 30, 2016, 1:44 a.m. UTC

1 37137U 10041A   16150.76656545 -.00000006  00000-0  10000-3 0  9995
2 37137  64.8426 317.2131 0019251 152.6659 262.0946  2.13111044 44681
UTC
Height (km)
Latitude
Longitude
Inclination
Orbital Period
UTC large
Height (km)
Speed (km/s)
/
Latitude / Longitude
Inclination (degrees)
Orbital Period (minutes)
Azimuth
Elevation
Range (km)
Doppler Factor
iOS Compass Heading
iOS Angle

Next 30 passes for location: Hong Kong

Rise time Rise Azimuth (degrees) Set time Set Azimuth (degrees) Duration Max altitude (degrees)

No matching passes for this satellites